Track STARLINK-1988 now! 10-day predictions STARLINK-1988 is classified as:
1 47584U 21009AN 21058.16667824 -.00041278 00000-0 -44700-3 0 9998 2 47584 53.0544 11.4915 0001283 67.6498 153.9575 15.62768148 4238